Tracking 25195 objects as of 20-Jan-2022
HD Live streaming from Space Station
objects crossing your sky now

OPS 5805

Track OPS 5805 now!
OPS 5805 is classified as:


NORAD ID: 12093
Int'l Code: 1980-100A
Perigee: 1,503.0 km
Apogee: 38,869.2 km
Inclination: 64.0 °
Period: 717.8 minutes
Semi major axis: 26557 km
RCS: Unknown
Launch date: December 13, 1980
Source: United States (US)
Launch site: AIR FORCE WESTERN TEST RANGE (AFWTR)
aabbcc
Your satellite tracking list
Your tracking list is empty




NASA's NSSDC Master Catalog

Two Line Element Set (TLE):
1 12093U 80100A   22019.21911772  .00000651  00000-0  00000-0 0  9990
2 12093  63.9666  13.0777 7035073 277.0882  14.3098  2.00600690 19858
Source of the keplerian elements: AFSPC